Terminal Aerodrome Forecast
Issued by NWS Pueblo, CO

Home | Current Version | Previous Version | Text Only | Print | Product List | Glossary On
Versions: 1 2 3 4 5 6 7 8 9 10 11 12 13 14 15 16 17 18 19 20 21 22 23 24 25 26 27 28 29 30 31 32 33 34 35 36 37 38 39 40 41 42 43 44 45 46 47 48 49 50
000
FTUS45 KPUB 190303 AAA
TAFCOS
TAF AMD
KCOS 190303Z 1903/1924 33015KT P6SM VCSH SCT050 BKN100
     FM190700 34015G25KT P6SM SCT030 BKN050
     FM191000 34020G33KT 4SM -SHRASN SCT015 BKN030
     FM191500 36015G25KT P6SM VCSH FEW050 SCT080=

USA.gov is the U.S. government's official web portal to all federal, state and local government web resources and services.